Regional Weather Roundup
Issued by NWS

Home | Current Version | Previous Version | Text Only | Print | Product List | Glossary Off
Versions: 1 2 3 4 5 6 7 8 9 10 11 12 13 14 15 16 17 18 19 20 21 22 23 24 25 26 27 28 29 30 31 32 33 34 35 36 37 38 39 40 41 42 43 44 45 46 47 48 49 50

000
ASUS45 KABQ 231401
RWRNM
NEW MEXICO REGIONAL WEATHER ROUNDUP
NATIONAL WEATHER SERVICE ALBUQUERQUE NM
700 AM MST THU FEB 23 2017

NOTE: "FAIR" MEANS FEW OR NO CLOUDS BELOW 12,000 FEET AGL WITH NO
       SIGNIFICANT WEATHER OR OBSTRUCTIONS TO VISION.

      THIS PRODUCT IS RELEASED AS TWO VERSIONS.  ONE VERSION NEAR
      THE TOP OF THE HOUR CONTAINING PRELIMINARY DATA FROM ALBUQUERQUE
      AND OTHER STATIONS.  A FINAL VERSION WITH ADDITIONAL DATA IS
      ISSUED ABOUT 10 MINUTES AFTER THE HOUR.

NMZ501-503-504-510>518-231500-
NORTHWEST PLATEAU/NORTHCENTRAL MOUNTAINS

CITY           SKY/WX    TMP DP  RH WIND       PRES   REMARKS
FARMINGTON     FAIR      34  24  67 W12       29.66S WCI  25
LOS ALAMOS     FAIR      42  16  35 S23G36    29.65F
SANTA FE       FAIR      41  23  48 SW16G25   29.66F
TAOS             N/A     39  19  45 SW13G18   29.62F WCI  32
ANGEL FIRE     MOCLDY    35  20  55 SW15G23   29.62F WCI  25

$$
NMZ402-403-502-505>509-231500-
WESTCENTRAL MOUNTAINS/SOUTHWEST MOUNTAINS

CITY           SKY/WX    TMP DP  RH WIND       PRES   REMARKS
GALLUP         FAIR      33  18  53 W21G31    29.73R WCI  21
GRANTS         FAIR      39  22  51 SW29G43   29.72F WCI  27
SILVER CITY    FAIR      45  36  70 W9        29.85S

$$
NMZ407-409-411-412-231500-
SOUTHERN DESERTS

CITY           SKY/WX    TMP DP  RH WIND       PRES   REMARKS
DEMING         FAIR      49  36  61 NW7       29.82R
LAS CRUCES     FAIR      46  35  67 W10       29.81S
HOLLOMAN AFB   FAIR      53  33  46 SE17      29.78R
ALAMOGORDO     FAIR      54  34  47 S12       29.77R
T OR C         FAIR      54  32  43 SW12      29.74R

$$
NMZ519>523-231500-
CENTRAL VALLEYS/CENTRAL HIGHLANDS

CITY           SKY/WX    TMP DP  RH WIND       PRES   REMARKS
ALBUQUERQUE    FAIR      45  26  47 S8        29.68F
DOUBLE EAGLE   PTCLDY    39  25  56 SW16      29.67F WCI  30
MORIARTY ARPT  FAIR      50  20  30 SW30G41   29.67F
CLINES CORNERS FAIR      41  24  51 SW26G36   29.67F
BELEN          FAIR      50  20  30 SW22G31   29.68S
SOCORRO        FAIR      52  26  36 SW23      29.71F

$$
NMZ524>526-539-540-231500-
SOUTHCENTRAL MOUNTAINS

CITY           SKY/WX    TMP DP  RH WIND       PRES   REMARKS
RUIDOSO        NOT AVBL

$$
NMZ527>531-231500-
NORTHEAST HIGHLANDS/NORTHEAST PLAINS

CITY           SKY/WX    TMP DP  RH WIND       PRES   REMARKS
RATON          FAIR      30  22  72 SW9       29.54F WCI  22
CLAYTON        FAIR      46  35  65 SW16      29.55F

$$
NMZ532>537-231500-
EASTCENTRAL PLAINS

CITY           SKY/WX    TMP DP  RH WIND       PRES   REMARKS
TUCUMCARI      FAIR      45  32  60 CALM      29.59F
CANNON AFB     FAIR      44  31  60 SW9       29.64S
CLOVIS AIRPORT FAIR      46  30  53 SW10      29.64S

$$
NMZ028-029-538-231500-
SOUTHEAST PLAINS

CITY           SKY/WX    TMP DP  RH WIND       PRES   REMARKS
ROSWELL        FAIR      56  32  40 SW16        N/A
ARTESIA        FAIR      61  32  33 SW23G30   29.66S
CARLSBAD       FAIR      66  27  23 SW20      29.67F
HOBBS          CLEAR     45  27  49 S8        29.71F


$$



USA.gov is the U.S. government's official web portal to all federal, state and local government web resources and services.